Climatologie pour Saint-Brevin les Pins
Jour • Résumé pour mars 15, 2017 Système :  Métrique    Anglais   Mixte
« - 1 jour
+ 1 jour »
Jour Semaine Mois Année Personnalisé
  Maximum : Minimum : Moyenne :
Température sous abri : 15.6 °C 8.2 °C 10.7 °C
Point de rosée : 10.6 °C 7.4 °C 8.5 °C
Humidité : 95 % 71 % 86 %
Vitesse du vent : 22.5 km/h 0.0 km/h 7.4 km/h
Rafale : 27.4 km/h - -
Direction :- - ENE
Pression : 1034.8 hPa 1028.0 hPa -
Précipitations : 0.0 mm    
Historical Graphs
 
 
Tableau de données pour mars 15, 2017
Heure Tempé Pt rosée Pression Vent Vitesse Rafale Humidité Taux pluie (/hr) Soleil
00:00 10.3 °C 8.5 °C 1034.8 hPa NNE 11.3 km/h 17.7 km/h 89 % 0.0 mm 0 W/m2
00:10 10.3 °C 8.4 °C 1034.8 hPa NE 11.3 km/h 20.9 km/h 88 % 0.0 mm 0 W/m2
00:15 10.3 °C 8.5 °C 1034.8 hPa ENE 1.6 km/h 17.7 km/h 89 % 0.0 mm 0 W/m2
00:20 10.3 °C 8.5 °C 1034.8 hPa ENE 11.3 km/h 12.9 km/h 89 % 0.0 mm 0 W/m2
00:25 10.3 °C 8.5 °C 1034.8 hPa ENE 11.3 km/h 16.1 km/h 89 % 0.0 mm 0 W/m2
00:30 10.3 °C 8.5 °C 1034.8 hPa NNE 3.2 km/h 16.1 km/h 89 % 0.0 mm 0 W/m2
00:35 10.3 °C 8.5 °C 1034.8 hPa NE 3.2 km/h 16.1 km/h 89 % 0.0 mm 0 W/m2
00:40 10.2 °C 8.5 °C 1034.8 hPa NNE 4.8 km/h 16.1 km/h 89 % 0.0 mm 0 W/m2
00:45 10.2 °C 8.5 °C 1034.8 hPa NNE 3.2 km/h 16.1 km/h 89 % 0.0 mm 0 W/m2
00:50 10.2 °C 8.5 °C 1034.8 hPa NE 8.0 km/h 19.3 km/h 89 % 0.0 mm 0 W/m2
00:55 10.2 °C 8.3 °C 1034.8 hPa NNE 9.7 km/h 19.3 km/h 88 % 0.0 mm 0 W/m2
01:00 10.2 °C 8.3 °C 1034.8 hPa North 8.0 km/h 16.1 km/h 88 % 0.0 mm 0 W/m2
01:10 10.1 °C 8.2 °C 1034.8 hPa North 4.8 km/h 16.1 km/h 88 % 0.0 mm 0 W/m2
01:15 10.1 °C 8.2 °C 1034.8 hPa NNE 3.2 km/h 19.3 km/h 88 % 0.0 mm 0 W/m2
01:20 10.1 °C 8.2 °C 1034.8 hPa NE 8.0 km/h 19.3 km/h 88 % 0.0 mm 0 W/m2
01:25 10.1 °C 8.2 °C 1034.8 hPa NE 12.9 km/h 16.1 km/h 88 % 0.0 mm 0 W/m2
01:30 10.1 °C 8.2 °C 1034.8 hPa NE 4.8 km/h 16.1 km/h 88 % 0.0 mm 0 W/m2
01:35 10.0 °C 8.3 °C 1034.8 hPa North 6.4 km/h 16.1 km/h 89 % 0.0 mm 0 W/m2
01:40 9.9 °C 8.0 °C 1034.8 hPa NE 4.8 km/h 22.5 km/h 88 % 0.0 mm 0 W/m2
01:45 9.9 °C 8.0 °C 1034.8 hPa ENE 8.0 km/h 22.5 km/h 88 % 0.0 mm 0 W/m2
01:55 9.8 °C 7.9 °C 1034.8 hPa NE 9.7 km/h 20.9 km/h 88 % 0.0 mm 0 W/m2
02:00 9.8 °C 7.9 °C 1034.8 hPa NE 6.4 km/h 20.9 km/h 88 % 0.0 mm 0 W/m2
02:05 9.8 °C 7.9 °C 1034.4 hPa NNE 6.4 km/h 16.1 km/h 88 % 0.0 mm 0 W/m2
02:10 9.8 °C 7.9 °C 1034.4 hPa NNE 9.7 km/h 16.1 km/h 88 % 0.0 mm 0 W/m2
02:15 9.7 °C 7.8 °C 1034.4 hPa NNE 14.5 km/h 16.1 km/h 88 % 0.0 mm 0 W/m2
02:20 9.7 °C 7.8 °C 1034.4 hPa NE 1.6 km/h 16.1 km/h 88 % 0.0 mm 0 W/m2
02:25 9.7 °C 8.0 °C 1034.4 hPa NE 8.0 km/h 16.1 km/h 89 % 0.0 mm 0 W/m2
02:30 9.7 °C 8.0 °C 1034.4 hPa ENE 9.7 km/h 16.1 km/h 89 % 0.0 mm 0 W/m2
02:40 9.7 °C 7.9 °C 1034.4 hPa NE 8.0 km/h 14.5 km/h 89 % 0.0 mm 0 W/m2
02:45 9.7 °C 7.9 °C 1034.4 hPa ENE 6.4 km/h 16.1 km/h 89 % 0.0 mm 0 W/m2
02:50 9.7 °C 7.9 °C 1034.1 hPa NE 6.4 km/h 17.7 km/h 89 % 0.0 mm 0 W/m2
02:55 9.7 °C 7.9 °C 1034.4 hPa East 4.8 km/h 17.7 km/h 89 % 0.0 mm 0 W/m2
03:00 9.7 °C 7.9 °C 1034.1 hPa ENE 9.7 km/h 17.7 km/h 89 % 0.0 mm 0 W/m2
03:05 9.7 °C 7.9 °C 1034.1 hPa ENE 4.8 km/h 12.9 km/h 89 % 0.0 mm 0 W/m2
03:10 9.7 °C 7.9 °C 1034.1 hPa NNE 1.6 km/h 14.5 km/h 89 % 0.0 mm 0 W/m2
03:15 9.7 °C 7.9 °C 1034.1 hPa NE 4.8 km/h 14.5 km/h 89 % 0.0 mm 0 W/m2
03:25 9.6 °C 7.8 °C 1034.1 hPa Calm   11.3 km/h 89 % 0.0 mm 0 W/m2
03:30 9.6 °C 7.8 °C 1034.1 hPa ENE 1.6 km/h 11.3 km/h 89 % 0.0 mm 0 W/m2
03:35 9.6 °C 7.8 °C 1033.7 hPa ENE 4.8 km/h 11.3 km/h 89 % 0.0 mm 0 W/m2
03:40 9.6 °C 7.8 °C 1033.7 hPa East 3.2 km/h 11.3 km/h 89 % 0.0 mm 0 W/m2
03:45 9.6 °C 7.8 °C 1033.7 hPa ENE 4.8 km/h 11.3 km/h 89 % 0.0 mm 0 W/m2
03:50 9.6 °C 7.8 °C 1033.7 hPa East 9.7 km/h 16.1 km/h 89 % 0.0 mm 0 W/m2
03:55 9.6 °C 7.8 °C 1033.7 hPa ENE 4.8 km/h 16.1 km/h 89 % 0.0 mm 0 W/m2
04:00 9.6 °C 7.8 °C 1033.7 hPa ENE 3.2 km/h 14.5 km/h 89 % 0.0 mm 0 W/m2
04:10 9.6 °C 7.8 °C 1033.7 hPa NE 6.4 km/h 11.3 km/h 89 % 0.0 mm 0 W/m2
04:15 9.6 °C 7.8 °C 1033.7 hPa Calm   16.1 km/h 89 % 0.0 mm 0 W/m2
04:20 9.6 °C 7.8 °C 1033.7 hPa East 3.2 km/h 16.1 km/h 89 % 0.0 mm 0 W/m2
04:25 9.6 °C 7.8 °C 1033.7 hPa ENE 4.8 km/h 12.9 km/h 89 % 0.0 mm 0 W/m2
04:30 9.6 °C 7.8 °C 1033.4 hPa ENE 8.0 km/h 12.9 km/h 89 % 0.0 mm 0 W/m2
04:35 9.6 °C 7.8 °C 1033.4 hPa East 4.8 km/h 14.5 km/h 89 % 0.0 mm 0 W/m2
04:40 9.6 °C 7.8 °C 1033.4 hPa East 12.9 km/h 14.5 km/h 89 % 0.0 mm 0 W/m2
04:45 9.6 °C 7.8 °C 1033.4 hPa ENE 8.0 km/h 20.9 km/h 89 % 0.0 mm 0 W/m2
04:50 9.5 °C 7.8 °C 1033.4 hPa East 12.9 km/h 20.9 km/h 89 % 0.0 mm 0 W/m2
04:55 9.6 °C 7.8 °C 1033.4 hPa ENE 6.4 km/h 14.5 km/h 89 % 0.0 mm 0 W/m2
05:00 9.6 °C 7.8 °C 1033.4 hPa ENE 11.3 km/h 14.5 km/h 89 % 0.0 mm 0 W/m2
05:05 9.5 °C 7.8 °C 1033.4 hPa NE 4.8 km/h 17.7 km/h 89 % 0.0 mm 0 W/m2
05:10 9.6 °C 7.8 °C 1033.4 hPa East 3.2 km/h 17.7 km/h 89 % 0.0 mm 0 W/m2
05:15 9.6 °C 7.7 °C 1033.4 hPa East 1.6 km/h 16.1 km/h 88 % 0.0 mm 0 W/m2
05:25 9.5 °C 7.8 °C 1033.4 hPa NE 8.0 km/h 19.3 km/h 89 % 0.0 mm 0 W/m2
05:30 9.5 °C 7.8 °C 1033.4 hPa ENE 4.8 km/h 16.1 km/h 89 % 0.0 mm 0 W/m2
05:40 9.4 °C 7.7 °C 1033.1 hPa ENE 14.5 km/h 17.7 km/h 89 % 0.0 mm 0 W/m2
05:45 9.4 °C 7.7 °C 1033.4 hPa ENE 3.2 km/h 17.7 km/h 89 % 0.0 mm 0 W/m2
05:50 9.4 °C 7.6 °C 1033.1 hPa ESE 8.0 km/h 16.1 km/h 88 % 0.0 mm 0 W/m2
05:55 9.5 °C 7.6 °C 1033.1 hPa ENE 3.2 km/h 14.5 km/h 88 % 0.0 mm 0 W/m2
06:00 9.4 °C 7.6 °C 1033.1 hPa ENE 6.4 km/h 12.9 km/h 88 % 0.0 mm 0 W/m2
06:05 9.4 °C 7.6 °C 1033.1 hPa ENE 1.6 km/h 17.7 km/h 88 % 0.0 mm 0 W/m2
06:10 9.4 °C 7.6 °C 1033.1 hPa East 11.3 km/h 17.7 km/h 88 % 0.0 mm 0 W/m2
06:15 9.4 °C 7.6 °C 1033.1 hPa ESE 14.5 km/h 14.5 km/h 88 % 0.0 mm 0 W/m2
06:25 9.4 °C 7.6 °C 1033.1 hPa ENE 16.1 km/h 17.7 km/h 88 % 0.0 mm 0 W/m2
06:30 9.4 °C 7.6 °C 1033.1 hPa ENE 6.4 km/h 17.7 km/h 88 % 0.0 mm 0 W/m2
06:35 9.4 °C 7.6 °C 1033.1 hPa East 8.0 km/h 17.7 km/h 88 % 0.0 mm 0 W/m2
06:40 9.4 °C 7.6 °C 1033.1 hPa ENE 1.6 km/h 16.1 km/h 88 % 0.0 mm 0 W/m2
06:45 9.4 °C 7.5 °C 1033.1 hPa ENE 4.8 km/h 12.9 km/h 88 % 0.0 mm 0 W/m2
06:50 9.4 °C 7.5 °C 1033.1 hPa East 8.0 km/h 11.3 km/h 88 % 0.0 mm 0 W/m2
06:55 9.4 °C 7.5 °C 1033.1 hPa East 4.8 km/h 11.3 km/h 88 % 0.0 mm 0 W/m2
07:00 9.4 °C 7.7 °C 1033.1 hPa ENE 4.8 km/h 8.0 km/h 89 % 0.0 mm 0 W/m2
07:10 9.3 °C 7.6 °C 1033.4 hPa East 1.6 km/h 4.8 km/h 89 % 0.0 mm 0 W/m2
07:15 9.3 °C 7.6 °C 1033.1 hPa East 4.8 km/h 11.3 km/h 89 % 0.0 mm 0 W/m2
07:20 9.3 °C 7.6 °C 1033.4 hPa East 1.6 km/h 11.3 km/h 89 % 0.0 mm 0 W/m2
07:25 9.3 °C 7.6 °C 1033.1 hPa East 4.8 km/h 9.7 km/h 89 % 0.0 mm 0 W/m2
07:30 9.2 °C 7.7 °C 1033.4 hPa NE 11.3 km/h 12.9 km/h 90 % 0.0 mm 0 W/m2
07:35 9.2 °C 7.5 °C 1033.4 hPa NE 6.4 km/h 14.5 km/h 89 % 0.0 mm 5 W/m2
07:40 9.2 °C 7.5 °C 1033.4 hPa NE 3.2 km/h 14.5 km/h 89 % 0.0 mm 7 W/m2
07:45 9.2 °C 7.5 °C 1033.4 hPa NE 8.0 km/h 11.3 km/h 89 % 0.0 mm 11 W/m2
07:55 9.2 °C 7.7 °C 1033.4 hPa NE 4.8 km/h 8.0 km/h 90 % 0.0 mm 19 W/m2
08:00 9.3 °C 7.7 °C 1033.4 hPa NE 3.2 km/h 11.3 km/h 90 % 0.0 mm 21 W/m2
08:05 9.3 °C 7.7 °C 1033.4 hPa NE 4.8 km/h 11.3 km/h 90 % 0.0 mm 26 W/m2
08:10 9.3 °C 7.8 °C 1033.4 hPa North 1.6 km/h 11.3 km/h 90 % 0.0 mm 30 W/m2
08:15 9.4 °C 7.8 °C 1033.4 hPa NNE 8.0 km/h 12.9 km/h 90 % 0.0 mm 35 W/m2
08:20 9.4 °C 7.9 °C 1033.4 hPa NNE 3.2 km/h 12.9 km/h 90 % 0.0 mm 35 W/m2
08:25 9.4 °C 7.9 °C 1033.4 hPa NNE 8.0 km/h 12.9 km/h 90 % 0.0 mm 35 W/m2
08:30 9.5 °C 7.9 °C 1033.4 hPa North 8.0 km/h 11.3 km/h 90 % 0.0 mm 42 W/m2
08:40 9.5 °C 7.9 °C 1033.4 hPa NNE 8.0 km/h 14.5 km/h 90 % 0.0 mm 49 W/m2
08:45 9.6 °C 7.8 °C 1033.4 hPa NNE 9.7 km/h 12.9 km/h 89 % 0.0 mm 54 W/m2
08:50 9.6 °C 7.8 °C 1033.4 hPa NE 3.2 km/h 12.9 km/h 89 % 0.0 mm 56 W/m2
08:55 9.7 °C 8.1 °C 1033.4 hPa NNE 3.2 km/h 12.9 km/h 90 % 0.0 mm 63 W/m2
09:00 9.7 °C 8.1 °C 1033.4 hPa NNE 8.0 km/h 17.7 km/h 90 % 0.0 mm 62 W/m2
09:05 9.7 °C 8.2 °C 1033.4 hPa NNE 4.8 km/h 17.7 km/h 90 % 0.0 mm 60 W/m2
09:10 9.7 °C 7.9 °C 1033.4 hPa NE 6.4 km/h 14.5 km/h 89 % 0.0 mm 65 W/m2
09:15 9.7 °C 8.2 °C 1033.4 hPa NE 12.9 km/h 14.5 km/h 90 % 0.0 mm 69 W/m2
09:25 9.7 °C 8.0 °C 1033.4 hPa ENE 8.0 km/h 16.1 km/h 89 % 0.0 mm 83 W/m2
09:30 9.7 °C 8.0 °C 1033.4 hPa NNE 8.0 km/h 16.1 km/h 89 % 0.0 mm 88 W/m2
09:35 9.7 °C 8.0 °C 1033.4 hPa NNE 12.9 km/h 16.1 km/h 89 % 0.0 mm 95 W/m2
09:40 9.8 °C 8.1 °C 1033.4 hPa ENE 4.8 km/h 14.5 km/h 89 % 0.0 mm 97 W/m2
09:45 9.9 °C 8.2 °C 1033.4 hPa North 6.4 km/h 19.3 km/h 89 % 0.0 mm 109 W/m2
09:50 10.1 °C 8.3 °C 1033.4 hPa NE 4.8 km/h 19.3 km/h 89 % 0.0 mm 109 W/m2
09:55 9.9 °C 8.0 °C 1033.4 hPa NE 3.2 km/h 17.7 km/h 88 % 0.0 mm 109 W/m2
10:00 9.9 °C 8.2 °C 1033.4 hPa North 6.4 km/h 17.7 km/h 89 % 0.0 mm 113 W/m2
10:05 9.9 °C 8.0 °C 1033.4 hPa NNE 4.8 km/h 17.7 km/h 88 % 0.0 mm 113 W/m2
10:10 9.9 °C 8.2 °C 1033.4 hPa ENE 6.4 km/h 17.7 km/h 89 % 0.0 mm 109 W/m2
10:15 10.0 °C 8.3 °C 1033.4 hPa ENE 14.5 km/h 17.7 km/h 89 % 0.0 mm 109 W/m2
10:20 10.0 °C 8.1 °C 1033.4 hPa NE 9.7 km/h 17.7 km/h 88 % 0.0 mm 113 W/m2
10:25 10.0 °C 8.3 °C 1033.4 hPa ENE 8.0 km/h 17.7 km/h 89 % 0.0 mm 118 W/m2
10:30 10.1 °C 8.2 °C 1033.4 hPa ENE 8.0 km/h 17.7 km/h 88 % 0.0 mm 114 W/m2
10:35 10.2 °C 8.3 °C 1033.4 hPa East 11.3 km/h 17.7 km/h 88 % 0.0 mm 118 W/m2
10:40 10.1 °C 8.0 °C 1033.4 hPa ENE 8.0 km/h 22.5 km/h 87 % 0.0 mm 114 W/m2
10:45 10.2 °C 8.1 °C 1033.4 hPa ENE 11.3 km/h 22.5 km/h 87 % 0.0 mm 109 W/m2
10:50 10.1 °C 8.0 °C 1033.4 hPa East 12.9 km/h 20.9 km/h 87 % 0.0 mm 113 W/m2
10:55 10.1 °C 8.0 °C 1033.4 hPa ENE 4.8 km/h 20.9 km/h 87 % 0.0 mm 111 W/m2
11:05 9.9 °C 7.9 °C 1033.4 hPa NNE 3.2 km/h 19.3 km/h 87 % 0.0 mm 116 W/m2
11:10 9.9 °C 7.9 °C 1033.4 hPa ENE 6.4 km/h 16.1 km/h 87 % 0.0 mm 121 W/m2
11:15 10.0 °C 8.1 °C 1033.4 hPa ENE 4.8 km/h 16.1 km/h 88 % 0.0 mm 121 W/m2
11:20 10.1 °C 8.0 °C 1033.4 hPa East 4.8 km/h 17.7 km/h 87 % 0.0 mm 127 W/m2
11:25 10.1 °C 8.0 °C 1033.1 hPa NE 6.4 km/h 17.7 km/h 87 % 0.0 mm 113 W/m2
11:35 10.0 °C 8.1 °C 1033.1 hPa East 11.3 km/h 19.3 km/h 88 % 0.0 mm 104 W/m2
11:40 10.0 °C 8.1 °C 1033.1 hPa ENE 6.4 km/h 17.7 km/h 88 % 0.0 mm 98 W/m2
11:50 10.1 °C 8.2 °C 1033.1 hPa ENE 6.4 km/h 20.9 km/h 88 % 0.0 mm 120 W/m2
11:55 10.1 °C 8.0 °C 1033.1 hPa East 4.8 km/h 16.1 km/h 87 % 0.0 mm 132 W/m2
12:00 10.2 °C 8.1 °C 1033.1 hPa ENE 12.9 km/h 19.3 km/h 87 % 0.0 mm 146 W/m2
12:05 10.2 °C 8.2 °C 1033.1 hPa East 14.5 km/h 19.3 km/h 87 % 0.0 mm 190 W/m2
12:10 10.2 °C 7.8 °C 1033.1 hPa ENE 17.7 km/h 20.9 km/h 85 % 0.0 mm 197 W/m2
12:15 10.1 °C 7.9 °C 1033.1 hPa East 9.7 km/h 20.9 km/h 86 % 0.0 mm 190 W/m2
12:25 10.2 °C 7.8 °C 1033.1 hPa East 8.0 km/h 19.3 km/h 85 % 0.0 mm 181 W/m2
12:30 10.3 °C 7.9 °C 1033.1 hPa ENE 6.4 km/h 20.9 km/h 85 % 0.0 mm 178 W/m2
12:35 10.3 °C 7.9 °C 1033.1 hPa NNE 8.0 km/h 20.9 km/h 85 % 0.0 mm 183 W/m2
12:40 10.4 °C 8.0 °C 1032.7 hPa ENE 4.8 km/h 19.3 km/h 85 % 0.0 mm 181 W/m2
12:45 10.6 °C 8.0 °C 1032.7 hPa ENE 11.3 km/h 19.3 km/h 84 % 0.0 mm 197 W/m2
12:50 10.7 °C 8.1 °C 1032.7 hPa East 11.3 km/h 19.3 km/h 84 % 0.0 mm 186 W/m2
12:55 10.8 °C 8.4 °C 1032.7 hPa ESE 11.3 km/h 19.3 km/h 85 % 0.0 mm 183 W/m2
13:00 10.7 °C 8.1 °C 1032.7 hPa NE 6.4 km/h 20.9 km/h 84 % 0.0 mm 211 W/m2
13:05 10.8 °C 8.2 °C 1032.7 hPa ENE 6.4 km/h 20.9 km/h 84 % 0.0 mm 209 W/m2
13:15 10.9 °C 8.3 °C 1032.4 hPa NE 4.8 km/h 19.3 km/h 84 % 0.0 mm 209 W/m2
13:20 11.1 °C 8.3 °C 1032.4 hPa ESE 1.6 km/h 20.9 km/h 83 % 0.0 mm 250 W/m2
13:25 11.3 °C 8.3 °C 1032.4 hPa East 14.5 km/h 20.9 km/h 82 % 0.0 mm 301 W/m2
13:30 11.3 °C 8.5 °C 1032.1 hPa ENE 8.0 km/h 20.9 km/h 83 % 0.0 mm 262 W/m2
13:40 11.4 °C 8.3 °C 1032.1 hPa ENE 12.9 km/h 24.1 km/h 81 % 0.0 mm 396 W/m2
13:45 11.8 °C 8.8 °C 1032.1 hPa East 17.7 km/h 24.1 km/h 82 % 0.0 mm 343 W/m2
13:55 12.2 °C 8.8 °C 1031.7 hPa East 3.2 km/h 20.9 km/h 80 % 0.0 mm 392 W/m2
14:00 12.2 °C 8.7 °C 1031.7 hPa ESE 6.4 km/h 22.5 km/h 79 % 0.0 mm 424 W/m2
14:05 12.4 °C 8.7 °C 1031.4 hPa East 9.7 km/h 22.5 km/h 78 % 0.0 mm 443 W/m2
14:10 12.6 °C 8.8 °C 1031.4 hPa NNE 6.4 km/h 24.1 km/h 78 % 0.0 mm 338 W/m2
14:15 12.7 °C 9.2 °C 1031.4 hPa NNE 4.8 km/h 24.1 km/h 79 % 0.0 mm 455 W/m2
14:20 12.7 °C 9.0 °C 1031.0 hPa ENE 11.3 km/h 20.9 km/h 78 % 0.0 mm 206 W/m2
14:25 13.1 °C 9.5 °C 1031.0 hPa ENE 11.3 km/h 20.9 km/h 79 % 0.0 mm 628 W/m2
14:30 13.4 °C 9.0 °C 1031.0 hPa NNE 4.8 km/h 24.1 km/h 75 % 0.0 mm 543 W/m2
14:40 14.2 °C 9.9 °C 1030.7 hPa ENE 11.3 km/h 20.9 km/h 75 % 0.0 mm 613 W/m2
14:45 14.6 °C 10.4 °C 1030.7 hPa NE 9.7 km/h 20.9 km/h 76 % 0.0 mm 608 W/m2
14:50 14.2 °C 9.4 °C 1030.7 hPa ENE 12.9 km/h 22.5 km/h 73 % 0.0 mm 591 W/m2
14:55 14.2 °C 9.6 °C 1030.4 hPa East 22.5 km/h 22.5 km/h 74 % 0.0 mm 582 W/m2
15:00 14.5 °C 9.7 °C 1030.4 hPa East 12.9 km/h 22.5 km/h 73 % 0.0 mm 577 W/m2
15:05 14.7 °C 9.9 °C 1030.4 hPa SSE 8.0 km/h 22.5 km/h 73 % 0.0 mm 557 W/m2
15:10 15.2 °C 9.9 °C 1030.4 hPa ESE 8.0 km/h 22.5 km/h 71 % 0.0 mm 548 W/m2
15:15 15.1 °C 10.1 °C 1030.4 hPa East 8.0 km/h 19.3 km/h 72 % 0.0 mm 543 W/m2
15:20 14.8 °C 9.6 °C 1030.4 hPa ENE 11.3 km/h 24.1 km/h 71 % 0.0 mm 541 W/m2
15:25 15.1 °C 10.5 °C 1030.4 hPa East 9.7 km/h 24.1 km/h 74 % 0.0 mm 513 W/m2
15:30 15.1 °C 10.1 °C 1030.0 hPa ENE 14.5 km/h 22.5 km/h 72 % 0.0 mm 503 W/m2
15:35 14.9 °C 9.9 °C 1030.0 hPa East 9.7 km/h 22.5 km/h 72 % 0.0 mm 497 W/m2
15:40 15.3 °C 10.5 °C 1030.0 hPa SE 12.9 km/h 22.5 km/h 73 % 0.0 mm 490 W/m2
15:45 15.3 °C 10.0 °C 1030.0 hPa East 8.0 km/h 22.5 km/h 71 % 0.0 mm 464 W/m2
15:50 15.4 °C 10.4 °C 1030.0 hPa NE 4.8 km/h 22.5 km/h 72 % 0.0 mm 446 W/m2
16:00 15.1 °C 9.8 °C 1029.7 hPa NE 8.0 km/h 19.3 km/h 71 % 0.0 mm 439 W/m2
16:10 15.3 °C 10.5 °C 1029.7 hPa ENE 4.8 km/h 25.7 km/h 73 % 0.0 mm 429 W/m2
16:15 15.4 °C 10.2 °C 1029.7 hPa NE 11.3 km/h 20.9 km/h 71 % 0.0 mm 420 W/m2
16:20 15.4 °C 10.4 °C 1029.7 hPa SE 3.2 km/h 20.9 km/h 72 % 0.0 mm 404 W/m2
16:25 15.6 °C 10.6 °C 1029.7 hPa East 3.2 km/h 17.7 km/h 72 % 0.0 mm 388 W/m2
16:30 15.6 °C 10.5 °C 1029.3 hPa NNE 12.9 km/h 22.5 km/h 72 % 0.0 mm 373 W/m2
16:35 15.3 °C 10.5 °C 1029.3 hPa ENE 1.6 km/h 22.5 km/h 73 % 0.0 mm 350 W/m2
16:40 15.3 °C 10.3 °C 1029.3 hPa ESE 3.2 km/h 25.7 km/h 72 % 0.0 mm 323 W/m2
16:45 15.3 °C 10.5 °C 1029.3 hPa North 11.3 km/h 25.7 km/h 73 % 0.0 mm 206 W/m2
16:55 15.3 °C 10.3 °C 1029.3 hPa ESE 14.5 km/h 20.9 km/h 72 % 0.0 mm 146 W/m2
17:00 15.2 °C 10.2 °C 1029.0 hPa East 11.3 km/h 20.9 km/h 72 % 0.0 mm 197 W/m2
17:05 15.1 °C 10.1 °C 1029.0 hPa ENE 3.2 km/h 22.5 km/h 72 % 0.0 mm 163 W/m2
17:10 15.2 °C 10.4 °C 1029.0 hPa ENE 12.9 km/h 22.5 km/h 73 % 0.0 mm 128 W/m2
17:15 15.1 °C 10.1 °C 1029.0 hPa ENE 22.5 km/h 22.5 km/h 72 % 0.0 mm 111 W/m2
17:20 15.0 °C 10.0 °C 1029.0 hPa ENE 14.5 km/h 24.1 km/h 72 % 0.0 mm 153 W/m2
17:25 14.9 °C 10.1 °C 1029.0 hPa East 14.5 km/h 24.1 km/h 73 % 0.0 mm 102 W/m2
17:30 14.9 °C 10.1 °C 1028.7 hPa East 4.8 km/h 22.5 km/h 73 % 0.0 mm 121 W/m2
17:40 14.8 °C 10.2 °C 1028.7 hPa East 12.9 km/h 25.7 km/h 74 % 0.0 mm 109 W/m2
17:45 14.7 °C 10.1 °C 1028.7 hPa ENE 17.7 km/h 24.1 km/h 74 % 0.0 mm 62 W/m2
17:50 14.6 °C 10.2 °C 1028.7 hPa East 14.5 km/h 20.9 km/h 75 % 0.0 mm 51 W/m2
17:55 14.4 °C 10.2 °C 1028.7 hPa ENE 14.5 km/h 20.9 km/h 76 % 0.0 mm 54 W/m2
18:00 14.3 °C 10.3 °C 1028.7 hPa ENE 11.3 km/h 20.9 km/h 77 % 0.0 mm 91 W/m2
18:05 14.0 °C 10.2 °C 1028.7 hPa East 9.7 km/h 27.4 km/h 78 % 0.0 mm 70 W/m2
18:10 13.8 °C 10.1 °C 1028.7 hPa NNE 6.4 km/h 27.4 km/h 78 % 0.0 mm 67 W/m2
18:15 13.6 °C 10.2 °C 1028.7 hPa NE 6.4 km/h 20.9 km/h 80 % 0.0 mm 39 W/m2
18:25 13.1 °C 9.9 °C 1028.7 hPa ENE 6.4 km/h 22.5 km/h 81 % 0.0 mm 35 W/m2
18:30 12.8 °C 9.8 °C 1028.7 hPa NE 4.8 km/h 20.9 km/h 82 % 0.0 mm 32 W/m2
18:35 12.6 °C 9.8 °C 1028.7 hPa ENE 12.9 km/h 20.9 km/h 83 % 0.0 mm 26 W/m2
18:40 12.4 °C 9.8 °C 1028.7 hPa East 14.5 km/h 19.3 km/h 84 % 0.0 mm 25 W/m2
18:45 12.2 °C 9.6 °C 1028.7 hPa Calm   17.7 km/h 84 % 0.0 mm 21 W/m2
18:50 12.1 °C 9.6 °C 1028.7 hPa ENE 6.4 km/h 16.1 km/h 85 % 0.0 mm 19 W/m2
18:55 11.8 °C 9.4 °C 1028.7 hPa ENE 6.4 km/h 16.1 km/h 85 % 0.0 mm 16 W/m2
19:00 11.7 °C 9.3 °C 1028.7 hPa NNE 3.2 km/h 16.1 km/h 85 % 0.0 mm 12 W/m2
19:05 11.6 °C 9.3 °C 1028.7 hPa ENE 12.9 km/h 14.5 km/h 86 % 0.0 mm 9 W/m2
19:10 11.3 °C 9.1 °C 1028.7 hPa ENE 4.8 km/h 17.7 km/h 86 % 0.0 mm 7 W/m2
19:15 11.1 °C 9.0 °C 1028.7 hPa ENE 4.8 km/h 17.7 km/h 87 % 0.0 mm 0 W/m2
19:20 11.0 °C 8.9 °C 1028.3 hPa NE 3.2 km/h 14.5 km/h 87 % 0.0 mm 0 W/m2
19:25 10.9 °C 9.0 °C 1028.3 hPa ENE 6.4 km/h 16.1 km/h 88 % 0.0 mm 0 W/m2
19:30 10.8 °C 8.9 °C 1028.7 hPa NE 1.6 km/h 16.1 km/h 88 % 0.0 mm 0 W/m2
19:35 10.7 °C 9.0 °C 1028.7 hPa ENE 8.0 km/h 19.3 km/h 89 % 0.0 mm 0 W/m2
19:40 10.6 °C 8.9 °C 1028.7 hPa ENE 12.9 km/h 19.3 km/h 89 % 0.0 mm 0 W/m2
19:45 10.4 °C 8.7 °C 1028.7 hPa ENE 6.4 km/h 12.9 km/h 89 % 0.0 mm 0 W/m2
19:55 10.3 °C 8.8 °C 1028.7 hPa ENE 3.2 km/h 16.1 km/h 90 % 0.0 mm 0 W/m2
20:00 10.3 °C 8.7 °C 1028.7 hPa NE 3.2 km/h 16.1 km/h 90 % 0.0 mm 0 W/m2
20:05 10.2 °C 8.8 °C 1028.7 hPa NE 11.3 km/h 12.9 km/h 91 % 0.0 mm 0 W/m2
20:10 10.2 °C 8.8 °C 1028.7 hPa ENE 6.4 km/h 12.9 km/h 91 % 0.0 mm 0 W/m2
20:15 10.1 °C 8.7 °C 1028.7 hPa ENE 11.3 km/h 14.5 km/h 91 % 0.0 mm 0 W/m2
20:20 10.1 °C 8.7 °C 1028.7 hPa ENE 1.6 km/h 14.5 km/h 91 % 0.0 mm 0 W/m2
20:25 10.1 °C 8.8 °C 1028.7 hPa ENE 8.0 km/h 17.7 km/h 92 % 0.0 mm 0 W/m2
20:30 9.9 °C 8.5 °C 1028.7 hPa ENE 4.8 km/h 17.7 km/h 91 % 0.0 mm 0 W/m2
20:35 9.8 °C 8.4 °C 1028.7 hPa East 3.2 km/h 16.1 km/h 91 % 0.0 mm 0 W/m2
20:40 9.8 °C 8.6 °C 1028.7 hPa ENE 6.4 km/h 16.1 km/h 92 % 0.0 mm 0 W/m2
20:45 9.8 °C 8.6 °C 1028.7 hPa NE 4.8 km/h 16.1 km/h 92 % 0.0 mm 0 W/m2
20:50 9.8 °C 8.5 °C 1028.7 hPa ENE 3.2 km/h 16.1 km/h 92 % 0.0 mm 0 W/m2
20:55 9.7 °C 8.4 °C 1028.7 hPa ENE 4.8 km/h 14.5 km/h 92 % 0.0 mm 0 W/m2
21:00 9.6 °C 8.4 °C 1028.7 hPa ENE 4.8 km/h 14.5 km/h 92 % 0.0 mm 0 W/m2
21:05 9.6 °C 8.4 °C 1028.3 hPa NE 3.2 km/h 14.5 km/h 92 % 0.0 mm 0 W/m2
21:10 9.6 °C 8.3 °C 1028.3 hPa NE 12.9 km/h 12.9 km/h 92 % 0.0 mm 0 W/m2
21:15 9.5 °C 8.3 °C 1028.7 hPa East 4.8 km/h 14.5 km/h 92 % 0.0 mm 0 W/m2
21:25 9.4 °C 8.2 °C 1028.3 hPa ESE 6.4 km/h 14.5 km/h 92 % 0.0 mm 0 W/m2
21:35 9.4 °C 8.2 °C 1028.3 hPa ENE 6.4 km/h 14.5 km/h 92 % 0.0 mm 0 W/m2
21:40 9.4 °C 8.2 °C 1028.7 hPa East 9.7 km/h 14.5 km/h 92 % 0.0 mm 0 W/m2
21:45 9.4 °C 8.2 °C 1028.7 hPa East 3.2 km/h 14.5 km/h 92 % 0.0 mm 0 W/m2
21:50 9.3 °C 8.0 °C 1028.7 hPa East 8.0 km/h 12.9 km/h 92 % 0.0 mm 0 W/m2
21:55 9.1 °C 8.0 °C 1028.7 hPa NE 4.8 km/h 12.9 km/h 93 % 0.0 mm 0 W/m2
22:00 9.1 °C 8.0 °C 1028.7 hPa East 6.4 km/h 16.1 km/h 93 % 0.0 mm 0 W/m2
22:05 9.1 °C 8.0 °C 1028.7 hPa East 11.3 km/h 16.1 km/h 93 % 0.0 mm 0 W/m2
22:10 8.9 °C 7.9 °C 1028.7 hPa NE 6.4 km/h 14.5 km/h 93 % 0.0 mm 0 W/m2
22:15 8.9 °C 7.9 °C 1028.7 hPa ENE 6.4 km/h 12.9 km/h 93 % 0.0 mm 0 W/m2
22:20 8.9 °C 8.0 °C 1028.7 hPa ENE 4.8 km/h 14.5 km/h 94 % 0.0 mm 0 W/m2
22:25 9.0 °C 8.1 °C 1028.7 hPa ENE 6.4 km/h 14.5 km/h 94 % 0.0 mm 0 W/m2
22:30 9.0 °C 7.9 °C 1028.7 hPa NE 9.7 km/h 16.1 km/h 93 % 0.0 mm 0 W/m2
22:40 8.8 °C 7.8 °C 1028.7 hPa ENE 1.6 km/h 14.5 km/h 93 % 0.0 mm 0 W/m2
22:45 8.8 °C 7.7 °C 1028.7 hPa ENE 6.4 km/h 11.3 km/h 93 % 0.0 mm 0 W/m2
22:50 8.7 °C 7.7 °C 1028.7 hPa ENE 3.2 km/h 11.3 km/h 93 % 0.0 mm 0 W/m2
22:55 8.8 °C 7.9 °C 1028.3 hPa ENE 6.4 km/h 11.3 km/h 94 % 0.0 mm 0 W/m2
23:05 8.7 °C 7.8 °C 1028.3 hPa ENE 8.0 km/h 12.9 km/h 94 % 0.0 mm 0 W/m2
23:10 8.6 °C 7.6 °C 1028.3 hPa ENE 6.4 km/h 11.3 km/h 94 % 0.0 mm 0 W/m2
23:15 8.4 °C 7.5 °C 1028.3 hPa Calm   6.4 km/h 94 % 0.0 mm 0 W/m2
23:20 8.3 °C 7.4 °C 1028.3 hPa NE 4.8 km/h 6.4 km/h 94 % 0.0 mm 0 W/m2
23:25 8.3 °C 7.4 °C 1028.0 hPa ENE 4.8 km/h 8.0 km/h 94 % 0.0 mm 0 W/m2
23:35 8.2 °C 7.5 °C 1028.0 hPa ENE 4.8 km/h 12.9 km/h 95 % 0.0 mm 0 W/m2
23:40 8.4 °C 7.6 °C 1028.0 hPa ENE 4.8 km/h 12.9 km/h 95 % 0.0 mm 0 W/m2
23:45 8.4 °C 7.7 °C 1028.0 hPa NE 3.2 km/h 12.9 km/h 95 % 0.0 mm 0 W/m2
23:55 8.4 °C 7.6 °C 1028.0 hPa ENE 4.8 km/h 14.5 km/h 95 % 0.0 mm 0 W/m2
Avec l'autorisation de Weather Underground - 1.5 mb